Regional Weather Roundup
Issued by NWS

Home | Current Version | Previous Version | Text Only | Print | Product List | Glossary On
Versions: 1 2 3 4 5 6 7 8 9 10 11 12 13 14 15 16 17 18 19 20 21 22 23 24 25 26 27 28 29 30 31 32 33 34 35 36 37 38 39 40 41 42 43 44 45 46 47 48 49 50
000
ASUS44 KLIX 261007
RWRLA
LOUISIANA WEATHER ROUNDUP
NATIONAL WEATHER SERVICE NEW ORLEANS LA
500 AM CDT SAT MAY 26 2018

NOTE: "FAIR" INDICATES FEW OR NO CLOUDS BELOW 12,000 FEET WITH NO
      SIGNIFICANT WEATHER AND/OR OBSTRUCTIONS TO VISIBILITY.
      SKY/WX - SKY CONDITION AND SIGNIFICANT WEATHER.
      TMP - AIR TEMPERATURE.    DP   - DEWPOINT TEMPERATURE.
      RH  - RELATIVE HUMIDITY.  PRES - PRESSURE.
      HX  - HEAT INDEX.         WCI  - WIND CHILL INDEX.

*  THESE STATIONS ARE NOT NWS OR FAA STATIONS AND ARE NOT UNDER
   NWS QUALITY CONTROL.

LAZ040-048-061>063-065-066-069-261100-
SOUTHEAST LOUISIANA

CITY           SKY/WX    TMP DP  RH WIND       PRES   REMARKS
N.O. INTL ARPT FAIR      75  73  93 CALM      29.87S
N.O. LAKEFRONT FAIR      75  70  84 S3        29.87S
N.O. DOWNTOWN* FAIR      76  69  79 CALM      29.88S
RESERVE*         N/A     73  69  88 CALM      29.88R
SLIDELL        FAIR      68  66  93 CALM      29.87F
BATON ROUGE    FAIR      71  69  93 E3        29.87R
BOOTHVILLE     FAIR      78  74  87 CALM      29.87F
BELLE CHASSE   FAIR      70  70 100 CALM      29.86F
BOGALUSA*      FOG       68  65  90 CALM      29.89S VSB<1/4
GALLIANO*      FAIR      69  66  92 CALM      29.86F
NEW ROADS*     FAIR      71  68  92 CALM      29.87S
GONZALES*      FAIR      68  68  99 CALM      29.87R
HAMMOND*       FAIR      66  66 100 CALM      29.87S
HOUMA*         FAIR      69  68  94 CALM      29.86S
PORT FOURCHON* SUNNY     77  73  88 CALM      29.87S

$$

LAZ041-044-053-054-261100-
SOUTHWEST LOUISIANA

CITY           SKY/WX    TMP DP  RH WIND       PRES   REMARKS
LAKE CHARLES   FAIR      75  73  93 S3          N/A
LAFAYETTE      FAIR      73  72  96 CALM      29.86S
PATTERSON      FAIR      73  72  96 CALM      29.87S
SALT POINT       N/A    N/A N/A N/A CALM      29.85S
NEW IBERIA     FAIR      72  69  90 E3        29.86F
CHENAULT AIRPK FAIR      73  72  96 CALM      29.87R

$$

LAZ027-028-261100-
CENTRAL LOUISIANA

CITY           SKY/WX    TMP DP  RH WIND       PRES   REMARKS
FORT POLK      NOT AVBL
ALEXANDRIA INT FAIR      71  70  96 CALM      29.85R
ALEXANDRIA     FAIR      69  69 100 CALM      29.86S

$$

LAZ001-002-261100-
NORTHWEST LOUISIANA

CITY           SKY/WX    TMP DP  RH WIND       PRES   REMARKS
SHREVEPORT     FAIR      72  71  97 CALM      29.84R
BARKSDALE AFB  FAIR      71  71 100 CALM      29.84R
DTN SHREVEPORT MOCLDY    75  70  84 W6        29.85R

$$

LAZ014-016-261100-
NORTHEAST LOUISIANA

CITY           SKY/WX    TMP DP  RH WIND       PRES   REMARKS
MONROE         FAIR      71  70  96 S5        29.86F
TALLULAH       FAIR      72  72 100 CALM      29.87R

$$




USA.gov is the U.S. government's official web portal to all federal, state and local government web resources and services.